Weather Roundup
Issued by NWS Chicago, IL

Home | Current Version | Previous Version | Graphics & Text | Print | Product List | Glossary On
Versions: 1 2 3 4 5 6 7 8 9 10 11 12 13 14 15 16 17 18 19 20 21 22 23 24 25 26 27 28 29 30 31 32 33 34 35 36 37 38 39 40 41 42 43 44 45 46 47 48 49 50
551
NZUS59 KLOT 220503
HRRLOT

CHICAGO AREA WEATHER ROUNDUP
NATIONAL WEATHER SERVICE CHICAGO/ROMEOVILLE IL
1100 PM CST WED FEB 21 2018

NOTE: "FAIR" INDICATES FEW OR NO CLOUDS BELOW 12,000 FEET WITH NO
SIGNIFICANT WEATHER AND/OR OBSTRUCTIONS TO VISIBILITY.

* THESE STATIONS ARE NOT UNDER NWS QUALITY CONTROL. THEY ALSO MAY NOT
  REPORT WEATHER SUCH AS PRECIPITATION OR FOG.

ILZ005-006-012>014-019>023-220600-
NORTHEAST ILLINOIS

CITY           SKY/WX    TMP DP  RH WIND       PRES   REMARKS
OHARE          CLOUDY    29  20  69 NE13      30.61F WCI  19
MIDWAY         CLOUDY    31  23  72 NE12      30.61F WCI  22
AURORA           N/A     28  20  71 NE12      30.59F WCI  18
LANSING*         N/A     31  27  84 NE12G17   30.60F WCI  22
JOLIET*          N/A     30  23  74 NE10      30.59F WCI  21
WAUKEGAN         N/A     27  20  75 NE6       30.62F WCI  20
DUPAGE AIRPORT   N/A     27  21  78 NE10      30.59F WCI  17
WHEELING         N/A     29  21  72 NE8       30.63F WCI  21
KANKAKEE*        N/A     31  26  82 NE12G18   30.57F WCI  21
MORRIS*          N/A     29  22  75 NE6       30.57F WCI  23
LEWIS AIRPORT*   N/A     28  23  79 NE13      30.59F WCI  18
NORTHERLY ISL    N/A     30  23  75 NE14        N/A  WCI  20
$$

WIZ051-052-058>065-066-070>072-220600-
SOUTHEAST WISCONSIN

CITY           SKY/WX    TMP DP  RH WIND       PRES   REMARKS
MILWAUKEE      CLOUDY    27  16  63 NE5       30.64F WCI  22
KENOSHA*         N/A     27  18  69 N6        30.63F WCI  20
RACINE*          N/A     26  19  74 NE8       30.65F WCI  18
BURLINGTON       N/A     24  17  73 NE5       30.63F WCI  18
WAUKESHA         N/A     21  14  73 NE3       30.64F
WEST BEND        N/A     23  16  74 N3        30.64F
$$

INZ001>003-010>013-019-020-220600-
NORTHWEST INDIANA

CITY           SKY/WX    TMP DP  RH WIND       PRES   REMARKS
GARY*            N/A     32  26  77 NE14      30.61F WCI  22
MICHIGAN CITY* NOT AVBL
RENSSELAER*    NOT AVBL
VALPARAISO       N/A     31  26  82 NE8       30.58F WCI  23
$$

LMZ740>746-220600-
SOUTHERN LAKE MICHIGAN

STATION/POSITION TIME  SKY/WX   TEMP WIND        PRES    VSBY
                                AIR  DIR/SP/G
                 (UTC)          (F)  (DEG/KT/KT) (MB)    (MI)
HARRISON CRIB    0440            31   30/ 16/ 18   N/A
BURNHAM HARBOR   0500            30   30/ 13/ 16   N/A
CALUMET HARBOR   0424            30   20/ 13/ 17 1036.4
BURNS HARBOR     0340            31   40/ 16/ 17 1037.3
MICHIGAN CITY    0440            30   30/ 19/ 20   N/A
$$

ABBREVIATIONS USED IN REMARKS
   TC - TEMPERATURE IN CELSIUS
  WCI - WIND CHILL INDEX
   HX - HEAT INDEX
  VSB - VISIBILITY
$$




USA.gov is the U.S. government's official web portal to all federal, state and local government web resources and services.